| time (UTC) | temp C | wind direction | speed KPH | gust KPH | rain 1hr cm | rain 24hr cm | rain mn cm | humidity % | barometer mb |
| 20260906224512 | 19 | 77 | 0.0 | 0.0 | 0.00 | 0.00 | 0.00 | 80 | 1023.7 |
| 20260906223019 | 19 | 77 | 0.0 | 0.0 | 0.00 | 0.00 | 0.00 | 79 | 1023.9 |
| 20260906221509 | 19 | 77 | 0.0 | 0.0 | 0.00 | 0.00 | 0.00 | 77 | 1023.9 |
| 20260906220020 | 19 | 77 | 0.0 | 0.0 | 0.00 | 0.00 | 0.00 | 76 | 1024.0 |
| 20260906214515 | 19 | 77 | 0.0 | 0.0 | 0.00 | 0.00 | 0.00 | 77 | 1024.3 |
| 20260906213009 | 19 | 77 | 0.0 | 0.0 | 0.00 | 0.00 | 0.00 | 76 | 1024.2 |
| 20260906211505 | 20 | 77 | 0.0 | 0.0 | 0.00 | 0.00 | 0.00 | 75 | 1024.2 |
| 20260906210005 | 20 | 77 | 0.0 | 0.0 | 0.00 | 0.00 | 0.00 | 75 | 1024.0 |
| 20260906204504 | 20 | 77 | 0.0 | 0.0 | 0.00 | 0.00 | 0.00 | 76 | 1023.9 |
| 20260906203009 | 20 | 77 | 0.0 | 0.0 | 0.00 | 0.00 | 0.00 | 75 | 1023.9 |
| 20260906201505 | 20 | 77 | 0.0 | 0.0 | 0.00 | 0.00 | 0.00 | 72 | 1023.6 |
| 20260906200003 | 20 | 77 | 0.0 | 0.0 | 0.00 | 0.00 | 0.00 | 73 | 1023.9 |
| 20260906194501 | 21 | 77 | 0.0 | 0.0 | 0.00 | 0.00 | 0.00 | 75 | 1024.1 |
| 20260906193000 | 21 | 77 | 0.0 | 0.0 | 0.00 | 0.00 | 0.00 | 71 | 1024.0 |
| 20260906191611 | 22 | 77 | 0.0 | 0.0 | 0.00 | 0.00 | 0.00 | 71 | 1024.0 |
| 20260906190100 | 22 | 77 | 0.0 | 0.0 | 0.00 | 0.00 | 0.00 | 67 | 1024.0 |
| 20260906190004 | 22 | 77 | 0.0 | 0.0 | 0.00 | 0.00 | 0.00 | 67 | 1024.0 |
| 20260906184602 | 23 | 77 | 0.0 | 0.0 | 0.00 | 0.00 | 0.00 | 62 | 1023.9 |
| 20260906183104 | 23 | 79 | 0.0 | 1.6 | 0.00 | 0.00 | 0.00 | 60 | 1023.9 |
| 20260906181629 | 24 | 79 | 0.0 | 1.6 | 0.00 | 0.00 | 0.00 | 60 | 1024.0 |
| 20260906180104 | 25 | 79 | 0.0 | 1.6 | 0.00 | 0.00 | 0.00 | 58 | 1024.0 |
| 20260906174601 | 25 | 80 | 0.0 | 1.6 | 0.00 | 0.00 | 0.00 | 56 | 1023.8 |
| 20260906173103 | 26 | 80 | 0.0 | 1.6 | 0.00 | 0.00 | 0.00 | 55 | 1023.7 |
| 20260906171555 | 26 | 79 | 0.0 | 1.6 | 0.00 | 0.00 | 0.00 | 54 | 1023.8 |
| 20260906170054 | 27 | 79 | 0.0 | 1.6 | 0.00 | 0.00 | 0.00 | 53 | 1023.9 |
| 20260906164556 | 27 | 89 | 0.0 | 1.6 | 0.00 | 0.00 | 0.00 | 51 | 1023.9 |
| 20260906163101 | 28 | 89 | 0.0 | 1.6 | 0.00 | 0.00 | 0.00 | 49 | 1023.9 |
| 20260906161604 | 28 | 84 | 0.0 | 3.2 | 0.00 | 0.00 | 0.00 | 48 | 1023.9 |
| 20260906160051 | 30 | 89 | 0.0 | 1.6 | 0.00 | 0.00 | 0.00 | 47 | 1023.9 |
| 20260906154551 | 29 | 78 | 0.0 | 3.2 | 0.00 | 0.00 | 0.00 | 48 | 1024.0 |
| 20260906153049 | 30 | 80 | 0.0 | 3.2 | 0.00 | 0.00 | 0.00 | 46 | 1024.0 |
| 20260906151548 | 30 | 82 | 0.0 | 3.2 | 0.00 | 0.00 | 0.00 | 47 | 1024.0 |
| 20260906150045 | 30 | 86 | 0.0 | 3.2 | 0.00 | 0.00 | 0.00 | 47 | 1024.2 |
| 20260906144544 | 30 | 117 | 0.0 | 3.2 | 0.00 | 0.00 | 0.00 | 46 | 1024.2 |
| 20260906143049 | 29 | 84 | 0.0 | 1.6 | 0.00 | 0.00 | 0.00 | 48 | 1024.3 |
| 20260906141539 | 30 | 79 | 0.0 | 3.2 | 0.00 | 0.00 | 0.00 | 48 | 1024.8 |
| 20260906140047 | 29 | 78 | 0.0 | 3.2 | 0.00 | 0.00 | 0.00 | 49 | 1024.7 |
| 20260906134537 | 28 | 86 | 0.0 | 3.2 | 0.00 | 0.00 | 0.00 | 50 | 1024.9 |
| 20260906133038 | 28 | 70 | 0.0 | 3.2 | 0.00 | 0.00 | 0.00 | 50 | 1024.9 |
| 20260906131533 | 28 | 78 | 0.0 | 1.6 | 0.00 | 0.00 | 0.00 | 49 | 1025.2 |
| 20260906130030 | 28 | 212 | 0.0 | 1.6 | 0.00 | 0.00 | 0.00 | 49 | 1025.3 |
| 20260906124526 | 28 | 262 | 0.0 | 1.6 | 0.00 | 0.15 | 0.00 | 50 | 1025.4 |
| 20260906123029 | 27 | 90 | 0.0 | 3.2 | 0.00 | 0.15 | 0.00 | 52 | 1025.8 |
| 20260906121527 | 27 | 169 | 0.0 | 1.6 | 0.00 | 0.15 | 0.00 | 51 | 1026.1 |
| 20260906120018 | 26 | 51 | 0.0 | 4.8 | 0.00 | 0.15 | 0.00 | 52 | 1026.3 |
| 20260906114533 | 26 | 267 | 0.0 | 4.8 | 0.00 | 0.23 | 0.00 | 53 | 1026.6 |
| 20260906113014 | 26 | 84 | 0.0 | 4.8 | 0.00 | 0.23 | 0.00 | 52 | 1026.7 |
| 20260906111521 | 26 | 143 | 0.0 | 1.6 | 0.00 | 0.23 | 0.00 | 52 | 1026.8 |
| 20260906110010 | 26 | 224 | 0.0 | 1.6 | 0.00 | 0.23 | 0.00 | 50 | 1026.9 |
| 20260906104509 | 24 | 129 | 0.0 | 3.2 | 0.00 | 0.38 | 0.00 | 58 | 1027.0 |
| 20260906103004 | 24 | 82 | 0.0 | 1.6 | 0.00 | 0.38 | 0.00 | 59 | 1027.0 |
| 20260906101503 | 23 | 81 | 0.0 | 3.2 | 0.00 | 0.38 | 0.00 | 60 | 1027.1 |
| 20260906100100 | 23 | 82 | 0.0 | 1.6 | 0.00 | 0.38 | 0.00 | 61 | 1027.3 |
| 20260906094558 | 23 | 82 | 0.0 | 3.2 | 0.00 | 0.38 | 0.00 | 64 | 1027.7 |
| 20260906093055 | 22 | 233 | 0.0 | 1.6 | 0.00 | 0.38 | 0.00 | 65 | 1027.6 |
| 20260906091551 | 21 | 233 | 0.0 | 3.2 | 0.00 | 0.38 | 0.00 | 69 | 1027.8 |
| 20260906090049 | 21 | 86 | 0.0 | 3.2 | 0.00 | 0.38 | 0.00 | 72 | 1028.0 |
| 20260906084546 | 20 | 256 | 0.0 | 1.6 | 0.00 | 0.38 | 0.00 | 73 | 1028.2 |
| 20260906083044 | 20 | 246 | 0.0 | 3.2 | 0.00 | 0.38 | 0.00 | 73 | 1028.1 |
| 20260906081542 | 20 | 244 | 0.0 | 0.0 | 0.00 | 0.38 | 0.00 | 75 | 1028.1 |
| 20260906080039 | 19 | 72 | 0.0 | 1.6 | 0.00 | 0.38 | 0.00 | 75 | 1028.4 |
| 20260906074538 | 17 | 72 | 0.0 | 1.6 | 0.00 | 0.38 | 0.00 | 79 | 1028.4 |
| 20260906073041 | 16 | 71 | 0.0 | 1.6 | 0.00 | 0.38 | 0.00 | 81 | 1028.4 |
| 20260906071534 | 14 | 71 | 0.0 | 1.6 | 0.00 | 0.38 | 0.00 | 86 | 1028.2 |
| 20260906070032 | 13 | 70 | 0.0 | 0.0 | 0.00 | 0.38 | 0.00 | 89 | 1028.2 |
| 20260906064532 | 13 | 70 | 0.0 | 1.6 | 0.00 | 0.38 | 0.00 | 92 | 1028.1 |
| 20260906063032 | 13 | 70 | 0.0 | 0.0 | 0.00 | 0.38 | 0.00 | 93 | 1028.2 |
| 20260906061532 | 12 | 70 | 0.0 | 0.0 | 0.00 | 0.38 | 0.00 | 92 | 1028.2 |
| 20260906060035 | 12 | 70 | 0.0 | 0.0 | 0.00 | 0.38 | 0.00 | 92 | 1028.1 |
| 20260906054529 | 12 | 70 | 0.0 | 0.0 | 0.00 | 0.38 | 0.00 | 93 | 1028.1 |
| 20260906053032 | 12 | 70 | 0.0 | 0.0 | 0.00 | 0.38 | 0.00 | 93 | 1028.2 |
| 20260906051529 | 12 | 70 | 0.0 | 0.0 | 0.00 | 0.38 | 0.00 | 93 | 1028.1 |
| 20260906050027 | 12 | 70 | 0.0 | 0.0 | 0.00 | 0.38 | 0.00 | 92 | 1028.0 |
| 20260906044525 | 12 | 70 | 0.0 | 0.0 | 0.00 | 0.38 | 0.00 | 92 | 1028.0 |
| 20260906043027 | 12 | 71 | 0.0 | 0.0 | 0.00 | 0.38 | 0.00 | 92 | 1027.9 |
| 20260906041529 | 12 | 71 | 0.0 | 0.0 | 0.00 | 0.38 | 0.00 | 92 | 1027.7 |
| 20260906040032 | 13 | 71 | 0.0 | 0.0 | 0.00 | 0.38 | 0.00 | 91 | 1027.7 |
| 20260906034528 | 13 | 71 | 0.0 | 0.0 | 0.00 | 0.38 | 0.00 | 91 | 1027.8 |
| 20260906033020 | 13 | 71 | 0.0 | 0.0 | 0.00 | 0.38 | 0.00 | 92 | 1027.9 |
| 20260906031533 | 13 | 71 | 0.0 | 1.6 | 0.00 | 0.38 | 0.00 | 92 | 1027.8 |
| 20260906030018 | 13 | 71 | 0.0 | 0.0 | 0.00 | 0.38 | 0.00 | 91 | 1027.7 |
| 20260906024516 | 13 | 71 | 0.0 | 0.0 | 0.00 | 0.38 | 0.00 | 92 | 1027.9 |
| 20260906023014 | 14 | 70 | 0.0 | 0.0 | 0.00 | 0.38 | 0.00 | 92 | 1027.9 |
| 20260906021515 | 14 | 70 | 0.0 | 1.6 | 0.00 | 0.38 | 0.00 | 93 | 1027.7 |
| 20260906020012 | 14 | 71 | 0.0 | 0.0 | 0.00 | 0.38 | 0.00 | 92 | 1027.8 |
| 20260906014514 | 14 | 71 | 0.0 | 0.0 | 0.00 | 0.38 | 0.00 | 92 | 1027.7 |
| 20260906013010 | 14 | 71 | 0.0 | 0.0 | 0.00 | 0.38 | 0.00 | 92 | 1027.6 |
| 20260906011509 | 15 | 71 | 0.0 | 0.0 | 0.00 | 0.38 | 0.00 | 92 | 1027.5 |
| 20260906010008 | 15 | 71 | 0.0 | 0.0 | 0.00 | 0.38 | 0.00 | 91 | 1027.5 |
| 20260906004506 | 15 | 71 | 0.0 | 0.0 | 0.00 | 0.38 | 0.00 | 91 | 1027.5 |
| 20260906003004 | 15 | 71 | 0.0 | 0.0 | 0.00 | 0.38 | 0.00 | 91 | 1027.5 |
| 20260906001503 | 15 | 71 | 0.0 | 0.0 | 0.00 | 0.38 | 0.00 | 91 | 1027.5 |
| 20260906000001 | 16 | 71 | 0.0 | 0.0 | 0.00 | 0.38 | 0.00 | 89 | 1027.6 |
| 20260905234559 | 16 | 71 | 0.0 | 0.0 | 0.00 | 0.38 | 0.00 | 89 | 1027.6 |
| 20260905233103 | 16 | 71 | 0.0 | 0.0 | 0.00 | 0.38 | 0.00 | 89 | 1027.6 |
| 20260905231616 | 16 | 71 | 0.0 | 0.0 | 0.00 | 0.38 | 0.00 | 88 | 1027.5 |
| 20260905230058 | 16 | 71 | 0.0 | 0.0 | 0.00 | 0.38 | 0.00 | 88 | 1027.5 |